WS Maaseik 1 Meer informatie WS Maaseik 1


WS Maaseik 2 Meer informatie WS Maaseik 2


Regen radar Meer informatie rain snow radar


Bezoek onze andere website:

Vorige versie
weerstation Maaseik


Bezoek ook eens deze sites:

Weerstation Geleen



Het weer levert geen direct gevaar op.    Er zijn geen waarschuwingen afgegeven.

15 daagse weersverwachting Ennis (IE)

  • Overzicht
  • Per uur
  • 15 dagen
  • Extra
  • Vergelijk
  • Kaarten
  • Dagkaart
  • Meer »
  • Info
  • Statistieken
  • Directe link
    Temp 6h Neerslag Wind  
 05:36     21:30    Daglengte: 15:54 Vandaag
19:00
14°
0.6 mm
6
 05:34     21:32    Daglengte: 15:58 Morgen
01:00
11°
1.7 mm
7
07:00
10°
 
5
13:00
16°
 
11
warningclass
19:00
13°
5.1 mm
8
 05:33     21:33    Daglengte: 16:00 Donderdag 19 Mei
01:00
10°
 
5
07:00
10°
 
6
13:00
16°
 
8
19:00
16°
 
8
 05:31     21:35    Daglengte: 16:04 Vrijdag 20 Mei
01:00
11°
 
5
07:00
12°
5.3 mm
6
13:00
15°
15.0 mm
8
Locatie info
Region: Clare
Latitude: 52.8469°N
Longitude: -8.9882°E
5 masl
Postcode: -1
Temp/Neerslag /Baro Onweer/Dauwpunt
    Temp Baro 1h Neerslag Dauwpunt Wind UV Bewolking  
 05:36     21:30    Daglengte: 15:54 Vandaag
16:00
14°
1007.4 hPa
48%
7.9°
7
Windvlaag: 10.6 m/s
28%
17:00
15°
1006.9 hPa
82%
8.3°
7
Windvlaag: 10.6 m/s
40%
18:00
15°
1006.6 hPa 0.6 mm
82%
8.5°
6
Windvlaag: 11.5 m/s
19%
19:00
14°
1006.3 hPa
42%
9.5°
6
Windvlaag: 11.8 m/s
66%
20:00
13°
1006.5 hPa
76%
9.5°
6
Windvlaag: 10.7 m/s
52%
21:00
13°
1006.7 hPa 0.7 mm
78%
7.2°
5
Windvlaag: 10.6 m/s
79%
22:00
12°
1007.1 hPa 1.0 mm
82%
7.1°
6
Windvlaag: 11.6 m/s
79%
23:00
11°
1007.1 hPa
36%
9.0°
6
Windvlaag: 11 m/s
52%
 05:34     21:32    Daglengte: 15:58 Morgen
00:00
11°
1007.0 hPa
27%
9.4°
6
Windvlaag: 10.6 m/s
39%
01:00
11°
1007.5 hPa
16%
8.7°
7
Windvlaag: 10.5 m/s
53%
02:00
11°
1008.2 hPa
17%
8.6°
6
Windvlaag: 9.3 m/s
9%
03:00
10°
1008.8 hPa
14%
8.0°
5
Windvlaag: 9.1 m/s
8%
04:00
10°
Voelt als: 7.4°
1009.6 hPa
14%
7.6°
5
Windvlaag: 8.6 m/s
8%
05:00
Voelt als: 7.0°
1010.2 hPa
14%
7.5°
5
Windvlaag: 8.2 m/s
10%
06:00
Voelt als: 6.7°
1010.7 hPa
14%
7.7°
5
Windvlaag: 8.5 m/s
10%
07:00
10°
Voelt als: 7.3°
1011.0 hPa
14%
8.0°
5
Windvlaag: 8.3 m/s
10%
08:00
11°
1011.2 hPa
14%
7.7°
6
Windvlaag: 10.5 m/s
14%
09:00
13°
1011.2 hPa
14%
7.6°
8
Windvlaag: 12.2 m/s
59%
10:00
14°
1010.7 hPa
15%
8.0°
9
Windvlaag: 14.4 m/s
19%
11:00
15°
1010.1 hPa
15%
8.4°
10
Windvlaag: 15 m/s
32%
12:00
16°
1009.3 hPa
22%
8.4°
11
Windvlaag: 16.8 m/s
79%
13:00
16°
1008.7 hPa
63%
7.7°
11
Windvlaag: 17.7 m/s
85% warningclass
14:00
16°
1008.0 hPa
43%
7.0°
12
Windvlaag: 18.5 m/s
86% warningclass
15:00
15°
1007.3 hPa 0.7 mm
82%
5.8°
11
Windvlaag: 19.5 m/s
76% warningclass
16:00
14°
1006.4 hPa 1.3 mm
82%
5.8°
10
Windvlaag: 18.1 m/s
86% warningclass
17:00
13°
1006.1 hPa 3.0 mm
82%
5.2°
10
Windvlaag: 15 m/s
86%
18:00
13°
1006.1 hPa
82%
4.8°
8
Windvlaag: 14.2 m/s
84%
19:00
13°
1006.5 hPa
72%
5.5°
8
Windvlaag: 11.7 m/s
23%
20:00
12°
1007.5 hPa
82%
5.9°
8
Windvlaag: 9.5 m/s
71%
21:00
12°
1007.8 hPa
82%
6.8°
7
Windvlaag: 7 m/s
6%
22:00
11°
1008.4 hPa
30%
7.2°
7
Windvlaag: 6.9 m/s
10%
23:00
11°
1009.0 hPa
27%
7.5°
7
Windvlaag: 7.5 m/s
0%
 05:33     21:33    Daglengte: 16:00 Donderdag 19 Mei
00:00
10°
1009.8 hPa
14%
8.0°
5
Windvlaag: 8 m/s
2%
01:00
10°
Voelt als: 7.2°
1010.2 hPa
14%
7.9°
5
Windvlaag: 8.2 m/s
3%
02:00
Voelt als: 6.7°
1010.4 hPa
14%
7.4°
5
Windvlaag: 8.3 m/s
1%
03:00
Voelt als: 6.5°
1010.5 hPa
14%
7.0°
5
Windvlaag: 8.5 m/s
6%
04:00
Voelt als: 6.4°
1010.4 hPa
14%
6.7°
5
Windvlaag: 8.3 m/s
11%
05:00
Voelt als: 6.5°
1010.7 hPa
14%
6.4°
6
Windvlaag: 9 m/s
13%
06:00
10°
Voelt als: 6.7°
1011.1 hPa
14%
6.1°
6
Windvlaag: 10.2 m/s
15%
07:00
10°
1011.6 hPa
14%
6.6°
6
Windvlaag: 10.6 m/s
18%
08:00
11°
1012.1 hPa
14%
7.2°
7
Windvlaag: 11 m/s
13%
09:00
13°
1012.5 hPa
14%
8.2°
7
Windvlaag: 11.4 m/s
18%
10:00
15°
1013.2 hPa
21%
8.6°
8
Windvlaag: 12.4 m/s
77%
11:00
15°
1013.3 hPa
21%
8.5°
8
Windvlaag: 12.5 m/s
88%
12:00
16°
1013.3 hPa
21%
8.8°
9
Windvlaag: 12.8 m/s
86%
13:00
16°
1013.4 hPa
21%
8.1°
8
Windvlaag: 13 m/s
68%
14:00
17°
1013.3 hPa
21%
9.0°
9
Windvlaag: 12.9 m/s
63%
15:00
17°
1013.2 hPa
21%
8.6°
8
Windvlaag: 12.9 m/s
46%
16:00
17°
1013.2 hPa
21%
8.7°
9
Windvlaag: 13.2 m/s
41%
17:00
17°
1013.1 hPa
21%
8.7°
9
Windvlaag: 13.2 m/s
19%
18:00
17°
1013.1 hPa
21%
8.9°
8
Windvlaag: 13 m/s
62%
19:00
16°
1013.3 hPa
21%
8.6°
8
Windvlaag: 12.7 m/s
71%
20:00
15°
1013.5 hPa
21%
9.1°
7
Windvlaag: 11.4 m/s
71%
21:00
14°
1013.6 hPa
21%
9.1°
6
Windvlaag: 11 m/s
69%
22:00
13°
1013.7 hPa
21%
8.8°
6
Windvlaag: 10.4 m/s
77%
23:00
12°
1013.6 hPa
65%
9.7°
6
Windvlaag: 10.3 m/s
72%
 05:31     21:35    Daglengte: 16:04 Vrijdag 20 Mei
00:00
11°
1013.3 hPa
21%
10.0°
5
Windvlaag: 10.2 m/s
81%
01:00
11°
1013.0 hPa
21%
9.6°
5
Windvlaag: 10.2 m/s
89%
02:00
11°
1012.4 hPa
21%
9.8°
5
Windvlaag: 10 m/s
90%
03:00
11°
1011.7 hPa
21%
9.4°
6
Windvlaag: 10.5 m/s
81%
04:00
11°
1011.2 hPa
21%
9.4°
6
Windvlaag: 10.9 m/s
97%
05:00
11°
1010.4 hPa
22%
9.0°
6
Windvlaag: 12.6 m/s
100%
06:00
11°
1010.1 hPa 1.9 mm
100%
9.0°
6
Windvlaag: 12.9 m/s
100%
07:00
12°
1010.2 hPa 3.4 mm
100%
10.0°
6
Windvlaag: 13.1 m/s
100%
08:00
12°
1010.4 hPa 2.3 mm
100%
10.6°
6
Windvlaag: 12.4 m/s
72%
09:00
13°
1010.6 hPa 2.4 mm
100%
11.2°
6
Windvlaag: 13.4 m/s
91%
10:00
14°
1010.8 hPa
99%
11.0°
7
Windvlaag: 11 m/s
54%
11:00
15°
1011.0 hPa
99%
12.6°
7
Windvlaag: 9.3 m/s
20%
12:00
15°
1011.2 hPa
87%
12.4°
8
Windvlaag: 11.5 m/s
76%
13:00
15°
1011.4 hPa
100%
9.9°
8
Windvlaag: 13 m/s
65%
Temp/Neerslag /Baro Onweer/Dauwpunt
    Temp Baro Neerslag Dauwpunt Wind Bewolking  
 05:36     21:30    Daglengte: 15:54 Vandaag
16:00
14°
1007.4 hPa   7.9°
7
28%
19:00
14°
1006.3 hPa 0.6 mm 9.5°
6
66%
22:00
12°
1007.1 hPa 1.7 mm 7.1°
6
79%
 05:34     21:32    Daglengte: 15:58 Morgen
01:00
11°
1007.5 hPa   8.7°
7
53%
04:00
10°
Voelt als: 7.4°
1009.6 hPa   7.6°
5
8%
07:00
10°
Voelt als: 7.3°
1011.0 hPa   8.0°
5
10%
10:00
14°
1010.7 hPa   8.0°
9
19%
13:00
16°
1008.7 hPa   7.7°
11
85% warningclass
16:00
14°
1006.4 hPa 2.1 mm 5.8°
10
86% warningclass
19:00
13°
1006.5 hPa 3.0 mm 5.5°
8
23%
22:00
11°
1008.4 hPa   7.2°
7
10%
 05:33     21:33    Daglengte: 16:00 Donderdag 19 Mei
01:00
10°
Voelt als: 7.2°
1010.2 hPa   7.9°
5
3%
04:00
Voelt als: 6.4°
1010.4 hPa   6.7°
5
11%
07:00
10°
1011.6 hPa   6.6°
6
18%
10:00
15°
1013.2 hPa   8.6°
8
77%
13:00
16°
1013.4 hPa   8.1°
8
68%
16:00
17°
1013.2 hPa   8.7°
9
41%
19:00
16°
1013.3 hPa   8.6°
8
71%
22:00
13°
1013.7 hPa   8.8°
6
77%
 05:31     21:35    Daglengte: 16:04 Vrijdag 20 Mei
01:00
11°
1013.0 hPa   9.6°
5
89%
04:00
11°
1011.2 hPa   9.4°
6
97%
07:00
12°
1010.2 hPa 5.3 mm 10.0°
6
100%
10:00
14°
1010.8 hPa 4.7 mm 11.0°
7
54%
13:00
15°
1011.4 hPa   9.9°
8
65%
16:00
15°
1013.2 hPa 16.7 mm 7.9°
8
0%
19:00
13°
1015.0 hPa 16.8 mm 9.0°
7
0%
22:00
10°
Voelt als: 8.1°
1017.5 hPa 16.9 mm 8.9°
3
0%
 05:30     21:36    Daglengte: 16:06 Zaterdag 21 Mei
01:00
Voelt als: 6.6°
1018.5 hPa 16.9 mm 7.8°
3
0%
04:00
Voelt als: 6.5°
1018.8 hPa 17.0 mm 7.6°
2
1%
07:00
10°
Voelt als: 8.6°
1018.7 hPa 17.0 mm 8.4°
2
1%
10:00
13°
1018.4 hPa 17.0 mm 7.9°
4
1%
13:00
17°
1017.2 hPa 17.0 mm 8.2°
4
1%
16:00
15°
1016.5 hPa 17.0 mm 9.6°
4
1%
19:00
13°
1015.6 hPa 17.1 mm 10.3°
5
1%
22:00
12°
1014.6 hPa 18.3 mm 11.3°
4
1%
 05:29     21:38    Daglengte: 16:09 Zondag 22 Mei
01:00
13°
1012.7 hPa 18.5 mm 12.6°
5
1%
04:00
13°
1011.4 hPa 18.7 mm 12.6°
4
1%
07:00
13°
1010.5 hPa 19.1 mm 12.6°
3
1%
10:00
15°
1009.9 hPa 20.3 mm 13.0°
4
1%
13:00
16°
1009.6 hPa 21.0 mm 10.8°
5
1%
16:00
17°
1008.4 hPa 21.0 mm 9.2°
7
1%
19:00
14°
1008.3 hPa 21.3 mm 11.0°
6
1%
22:00
11°
1008.9 hPa 21.3 mm 8.8°
4
0%
 05:28     21:39    Daglengte: 16:11 Maandag 23 Mei
01:00
10°
Voelt als: 9.0°
1008.1 hPa 21.4 mm 8.4°
2
1%
04:00
10°
1006.6 hPa 23.9 mm 9.8°
3
1%
07:00
10°
1006.4 hPa 24.4 mm 9.2°
4
1%
10:00
13°
1006.7 hPa 24.9 mm 9.3°
7
0%
13:00
15°
1007.4 hPa 25.3 mm 7.4°
8
0%
16:00
15°
1007.7 hPa 25.4 mm 7.0°
7
0%
19:00
13°
1008.6 hPa 25.4 mm 7.7°
6
0%
22:00
Voelt als: 7.8°
1009.6 hPa 25.4 mm 7.9°
3
1%
 05:26     21:40    Daglengte: 16:14 Dinsdag 24 Mei
01:00
Voelt als: 5.5°
1010.0 hPa 25.4 mm 6.5°
2
1%
04:00
Voelt als: 4.8°
1009.7 hPa 25.4 mm 5.9°
2
1%
07:00
Voelt als: 6.7°
1009.6 hPa 25.4 mm 6.8°
2
1%
10:00
13°
1009.5 hPa 25.4 mm 8.2°
4
1%
13:00
15°
1008.7 hPa 50.9 mm 9.5°
4
1%
19:00
13°
1007.3 hPa 53.2 mm 11.2°
5
1%
 05:25     21:42    Daglengte: 16:17 Woensdag 25 Mei
01:00
12°
1003.7 hPa 56.2 mm 10.9°
6
1%
07:00
12°
1000.5 hPa 58.2 mm 10.8°
5
1%
13:00
18°
1000.4 hPa 58.7 mm 8.3°
7
1%
19:00
15°
1001.7 hPa 59.7 mm 9.0°
5
1%
 05:24     21:43    Daglengte: 16:19 Donderdag 26 Mei
01:00
Voelt als: 6.5°
1004.8 hPa 60.2 mm 7.2°
3
1%
07:00
11°
1007.3 hPa 60.5 mm 9.0°
3
1%
13:00
17°
1008.5 hPa 61.0 mm 9.5°
5
1%
19:00
13°
1008.7 hPa 62.2 mm 10.4°
7
1%
 05:23     21:44    Daglengte: 16:21 Vrijdag 27 Mei
01:00
Voelt als: 5.7°
1013.4 hPa 63.0 mm 5.8°
4
0%
07:00
Voelt als: 5.9°
1015.7 hPa 63.0 mm 6.2°
3
0%
13:00
17°
1015.2 hPa 1.2 mm 10.9°
2
70%
19:00
15°
1015.1 hPa 0.9 mm 10.8°
2
65%
 05:22     21:46    Daglengte: 16:24 Zaterdag 28 Mei
01:00
10°
1015.8 hPa 0.5 mm 9.2°
1
69%
07:00
11°
1015.5 hPa 0.8 mm 9.3°
1
72%
13:00
17°
1016.0 hPa   10.1°
1
63%
19:00
15°
1016.8 hPa 1.4 mm 10.6°
2
61%
 05:21     21:47    Daglengte: 16:26 Zondag 29 Mei
01:00
10°
1018.3 hPa 0.3 mm 8.7°
1
51%
07:00
10°
1018.5 hPa 0.1 mm 8.9°
1
52%
13:00
17°
1018.9 hPa 0.4 mm 10.0°
3
68%
19:00
15°
1018.2 hPa 0.7 mm 10.4°
3
66%
 05:20     21:48    Daglengte: 16:28 Maandag 30 Mei
01:00
10°
1018.4 hPa 0.4 mm 9.0°
2
65%
07:00
11°
1017.5 hPa 0.8 mm 9.4°
2
66%
13:00
16°
1018.0 hPa 0.6 mm 10.1°
2
69%
19:00
15°
1017.7 hPa 0.5 mm 10.0°
2
64%
 05:19     21:49    Daglengte: 16:30 Dinsdag 31 Mei
01:00
11°
1018.5 hPa 0.7 mm 8.8°
1
58%
07:00
11°
1018.0 hPa 1.0 mm 8.9°
1
61%
13:00
17°
1018.4 hPa 0.8 mm 10.3°
2
61%
19:00
16°
1017.6 hPa 0.8 mm 11.2°
2
66%
 05:18     21:51    Daglengte: 16:33 Woensdag 01 Jun
01:00
11°
1018.3 hPa 0.6 mm 9.9°
2
67%
07:00
12°
1017.5 hPa 0.4 mm 9.8°
1
73%
13:00
16°
1017.6 hPa 0.4 mm 11.0°
2
75%
  CAPE Lifted Index Hail Supercell Tornado SRH 3km CL BTM PRES CL TOP PRES Swiss DWD icon SMHI TS
 05:36     21:30    Daglengte: 15:54 Vandaag
16:00 109 J/kg 2.5 K 0 % 0 % 0 % 0 m²/s² 0 0 6.07 3
17:00 295 J/kg -1.0 K 0 % 0 % 0 % 0 m²/s² 0 0 1.25 80
18:00 233 J/kg -1.0 K 0 % 0 % 0 % 0 m²/s² 0 0 1.31 80
19:00 295 J/kg -1.5 K 0 % 0 % 0 % 0 m²/s² 0 0 0.75 3
20:00 284 J/kg -1.2 K 0 % 0 % 0 % 0 m²/s² 0 0 0.48 3
21:00 161 J/kg -0.4 K 0 % 0 % 0 % 0 m²/s² 0 0 0.14 80
22:00 208 J/kg -0.6 K 0 % 0 % 0 % 0 m²/s² 0 0 -0.21 80
23:00 15 J/kg 0.1 K 0 % 0 % 0 % 0 m²/s² 0 0 1.21 3
 05:34     21:32    Daglengte: 15:58 Morgen
00:00 125 J/kg -1.7 K 0 % 0 % 0 % 0 m²/s² 0 0 -0.62 3
01:00 264 J/kg -2.2 K 0 % 0 % 0 % 0 m²/s² 0 0 -0.82 2
02:00 400 J/kg -2.1 K 0 % 0 % 0 % 0 m²/s² 0 0 0.06 2
03:00 168 J/kg -0.4 K 0 % 0 % 0 % 0 m²/s² 0 0 4.07 2
04:00 21 J/kg 0.6 K 0 % 0 % 0 % 0 m²/s² 0 0 5.43 2
05:00 0 J/kg 1.6 K 0 % 0 % 0 % 0 m²/s² 0 0 6.1 1
06:00 0 J/kg 2.7 K 0 % 0 % 0 % 0 m²/s² 0 0 6.48 2
07:00 0 J/kg 3.9 K 0 % 0 % 0 % 0 m²/s² 0 0 6.99 1
08:00 0 J/kg 3.9 K 0 % 0 % 0 % 0 m²/s² 0 0 6.9 1
09:00 33 J/kg 3.3 K 0 % 0 % 0 % 0 m²/s² 0 0 5.19 2
10:00 49 J/kg 3.4 K 0 % 0 % 0 % 0 m²/s² 0 0 4.48 2
11:00 67 J/kg 3.2 K 0 % 0 % 0 % 0 m²/s² 0 0 4.46 2
12:00 111 J/kg 2.6 K 0 % 0 % 0 % 0 m²/s² 0 0 3.89 3
13:00 85 J/kg 1.9 K 0 % 0 % 0 % 0 m²/s² 0 0 2.56 3
14:00 159 J/kg 0.6 K 0 % 0 % 0 % 0 m²/s² 0 0 0.81 3
15:00 157 J/kg 0.2 K 0 % 0 % 0 % 0 m²/s² 0 0 0.41 3
16:00 378 J/kg -1.2 K 0 % 0 % 0 % 0 m²/s² 0 0 -0.96 61
17:00 231 J/kg 0.1 K 0 % 0 % 0 % 0 m²/s² 0 0 3.1 63
18:00 441 J/kg -2.0 K 0 % 0 % 0 % 0 m²/s² 0 0 -0.26 61
19:00 290 J/kg -1.9 K 0 % 0 % 0 % 0 m²/s² 0 0 0.35 2
20:00 61 J/kg 1.0 K 0 % 0 % 0 % 0 m²/s² 0 0 6.13 80
21:00 34 J/kg 2.5 K 0 % 0 % 0 % 0 m²/s² 0 0 8.2 2
22:00 18 J/kg 5.6 K 0 % 0 % 0 % 0 m²/s² 0 0 10.61 2
23:00 0 J/kg 7.4 K 0 % 0 % 0 % 0 m²/s² 0 0 11.63 1
 05:33     21:33    Daglengte: 16:00 Donderdag 19 Mei
00:00 0 J/kg 7.6 K 0 % 0 % 0 % 0 m²/s² 0 0 9.82 1
01:00 0 J/kg 8.0 K 0 % 0 % 0 % 0 m²/s² 0 0 10.22 0
02:00 0 J/kg 8.0 K 0 % 0 % 0 % 0 m²/s² 0 0 10.28 0
03:00 0 J/kg 7.8 K 0 % 0 % 0 % 0 m²/s² 0 0 9.96 1
04:00 0 J/kg 7.6 K 0 % 0 % 0 % 0 m²/s² 0 0 9.7 1
05:00 0 J/kg 7.1 K 0 % 0 % 0 % 0 m²/s² 0 0 9.05 0
06:00 0 J/kg 6.6 K 0 % 0 % 0 % 0 m²/s² 0 0 8.43 1
07:00 0 J/kg 6.6 K 0 % 0 % 0 % 0 m²/s² 0 0 8.37 1
08:00 2 J/kg 5.9 K 0 % 0 % 0 % 0 m²/s² 0 0 7.67 1
09:00 50 J/kg 4.5 K 0 % 0 % 0 % 0 m²/s² 0 0 6.66 1
10:00 66 J/kg 3.8 K 0 % 0 % 0 % 0 m²/s² 0 0 6.98 2
11:00 85 J/kg 3.3 K 0 % 0 % 0 % 0 m²/s² 0 0 6.66 3
12:00 85 J/kg 2.9 K 0 % 0 % 0 % 0 m²/s² 0 0 6.74 3
13:00 79 J/kg 2.7 K 0 % 0 % 0 % 0 m²/s² 0 0 6.96 3
14:00 90 J/kg 2.7 K 0 % 0 % 0 % 0 m²/s² 0 0 7.08 3
15:00 92 J/kg 2.9 K 0 % 0 % 0 % 0 m²/s² 0 0 7.16 3
16:00 95 J/kg 3.2 K 0 % 0 % 0 % 0 m²/s² 0 0 7.37 2
17:00 96 J/kg 3.3 K 0 % 0 % 0 % 0 m²/s² 0 0 7.17 1
18:00 93 J/kg 3.6 K 0 % 0 % 0 % 0 m²/s² 0 0 8.1 2
19:00 87 J/kg 3.6 K 0 % 0 % 0 % 0 m²/s² 0 0 8.49 2
20:00 103 J/kg 3.4 K 0 % 0 % 0 % 0 m²/s² 0 0 7.27 1
21:00 73 J/kg 3.5 K 0 % 0 % 0 % 0 m²/s² 0 0 6.98 1
22:00 29 J/kg 4.0 K 0 % 0 % 0 % 0 m²/s² 0 0 7.57 3
23:00 0 J/kg 4.3 K 0 % 0 % 0 % 0 m²/s² 0 0 7.36 3
 05:31     21:35    Daglengte: 16:04 Vrijdag 20 Mei
00:00 0 J/kg 3.9 K 0 % 0 % 0 % 0 m²/s² 0 0 6.48 3
01:00 0 J/kg 3.5 K 0 % 0 % 0 % 0 m²/s² 0 0 5.51 3
02:00 0 J/kg 3.3 K 0 % 0 % 0 % 0 m²/s² 0 0 5.07 3
03:00 4 J/kg 2.6 K 0 % 0 % 0 % 0 m²/s² 0 0 3.77 2
04:00 35 J/kg 2.0 K 0 % 0 % 0 % 0 m²/s² 0 0 3.11 3
05:00 33 J/kg 1.6 K 0 % 0 % 0 % 0 m²/s² 0 0 1.93 3
06:00 34 J/kg 0.7 K 0 % 0 % 0 % 0 m²/s² 0 0 0.97 61
07:00 29 J/kg 0.3 K 0 % 0 % 0 % 0 m²/s² 0 0 0.54 61
08:00 192 J/kg -0.7 K 0 % 0 % 0 % 0 m²/s² 0 0 -0.37 80
09:00 467 J/kg -1.7 K 0 % 0 % 0 % 0 m²/s² 0 0 -0.95 80
10:00 560 J/kg -2.2 K 0 % 0 % 0 % 0 m²/s² 0 0 -1.51 3
11:00 506 J/kg -1.9 K 0 % 0 % 0 % 0 m²/s² 0 0 -1.15 2
12:00 470 J/kg -1.3 K 0 % 0 % 0 % 0 m²/s² 0 0 0.38 3
13:00 256 J/kg 0.2 K 0 % 0 % 0 % 0 m²/s² 0 0 2.39 3
Temp Baro Wind Neerslag
  EWN Forecast EWN WRFDA DWD ICON FMI HIRLAM MET Norway GFS
 05:36     21:30    Daglengte: 15:54 Vandaag
16:00 14.3° 1007.4 hPa 7.0 m/s 0.0 mm 13.7° 1007.5 hPa 6.9 m/s 1.9 mm 14.5° 1007.6 hPa 6.0 m/s -1.5 mm 14.7° 1006.7 hPa 7.2 m/s 0.0 mm 14.0° 1007.5 hPa 4.6 m/s
19:00 14.4° 1006.3 hPa 6.1 m/s 0.6 mm 13.5° 1006.5 hPa 8.2 m/s 5.7 mm 15.1° 1006.4 hPa 5.6 m/s 0.5 mm 14.5° 1005.7 hPa 5.8 m/s 0.0 mm 14.1° 1006.8 hPa 5.3 m/s
22:00 11.9° 1007.1 hPa 5.7 m/s 1.7 mm 11.7° 1005.8 hPa 7.7 m/s 5.9 mm 11.7° 1007.7 hPa 4.4 m/s 1.4 mm 12.9° 1005.1 hPa 5.6 m/s 0.0 mm 9.3° 1007.6 hPa 4.8 m/s
 05:34     21:32    Daglengte: 15:58 Morgen
01:00 11.2° 1007.5 hPa 6.7 m/s 0.0 mm 10.7° 1006.3 hPa 7.8 m/s 6.6 mm 10.8° 1007.9 hPa 6.7 m/s 0.0 mm 12.0° 1005.3 hPa 6.9 m/s 0.0 mm 8.5° 1008.0 hPa 4.2 m/s
04:00 9.8° 1009.6 hPa 4.9 m/s 0.0 mm 9.3° 1008.8 hPa 3.5 m/s 7.4 mm 9.7° 1009.7 hPa 4.4 m/s 0.0 mm 10.7° 1008.7 hPa 5.7 m/s 0.0 mm 7.3° 1010.1 hPa 3.2 m/s
07:00 9.8° 1011.0 hPa 5.4 m/s 0.0 mm 9.8° 1010.1 hPa 5.9 m/s 7.5 mm 9.8° 1011.2 hPa 5.2 m/s 0.0 mm 10.1° 1011.1 hPa 4.9 m/s 0.0 mm 7.5° 1011.5 hPa 3.4 m/s
10:00 14.3° 1010.7 hPa 9.0 m/s 0.0 mm 14.4° 1010.0 hPa 8.5 m/s 7.5 mm 14.3° 1010.7 hPa 9.0 m/s 0.0 mm 14.7° 1012.2 hPa 8.0 m/s 0.0 mm 13.8° 1010.7 hPa 7.9 m/s
13:00 15.9° 1008.7 hPa 11.3 m/s 0.0 mm 15.8° 1007.5 hPa 11.3 m/s 7.5 mm 15.9° 1008.3 hPa 12.0 m/s 0.0 mm 17.0° 1012.1 hPa 8.4 m/s 0.0 mm 15.7° 1008.4 hPa 10.0 m/s
16:00 13.8° 1006.4 hPa 10.0 m/s 2.1 mm 13.4° 1004.3 hPa 10.6 m/s 8.5 mm 13.2° 1005.9 hPa 11.1 m/s 0.8 mm 17.6° 1010.8 hPa 9.8 m/s 0.0 mm 11.8° 1005.7 hPa 7.6 m/s
19:00 13.1° 1006.5 hPa 8.4 m/s 3.0 mm 11.8° 1004.3 hPa 8.6 m/s 13.3 mm 13.0° 1004.4 hPa 8.3 m/s 3.4 mm 16.1° 1009.0 hPa 9.7 m/s 0.0 mm 11.1° 1006.6 hPa 9.5 m/s
22:00 11.2° 1008.4 hPa 6.9 m/s 0.0 mm 10.1° 1009.3 hPa 5.5 m/s 15.1 mm 11.1° 1006.8 hPa 7.4 m/s 0.6 mm 13.6° 1008.3 hPa 8.3 m/s 0.0 mm 9.6° 1010.9 hPa 6.3 m/s
 05:33     21:33    Daglengte: 16:00 Donderdag 19 Mei
01:00 9.8° 1010.2 hPa 5.2 m/s 0.0 mm 7.0° 1010.8 hPa 4.6 m/s 15.1 mm 9.9° 1010.7 hPa 4.9 m/s 0.0 mm 12.5° 1006.5 hPa 7.5 m/s 0.0 mm 8.3° 1012.7 hPa 4.0 m/s
04:00 9.1° 1010.4 hPa 5.0 m/s 0.0 mm 7.0° 1011.3 hPa 4.8 m/s 15.1 mm 8.8° 1011.8 hPa 4.8 m/s 0.0 mm 12.1° 1005.0 hPa 6.4 m/s 0.0 mm 6.3° 1012.7 hPa 2.8 m/s
07:00 10.1° 1011.6 hPa 6.1 m/s 0.0 mm 9.9° 1012.0 hPa 5.9 m/s 15.1 mm 9.1° 1012.8 hPa 5.0 m/s 0.0 mm 11.7° 1008.2 hPa 6.3 m/s 0.0 mm 9.0° 1013.4 hPa 3.9 m/s
10:00 14.5° 1013.2 hPa 8.2 m/s 0.0 mm 15.0° 1012.7 hPa 8.1 m/s 15.2 mm 14.3° 1013.6 hPa 8.6 m/s 0.0 mm 14.3° 1014.3 hPa 6.9 m/s
13:00 16.3° 1013.4 hPa 8.4 m/s 0.0 mm 16.2° 1012.7 hPa 8.4 m/s 15.3 mm 15.9° 1014.0 hPa 8.5 m/s 0.0 mm 16.8° 1013.8 hPa 7.6 m/s
16:00 17.5° 1013.2 hPa 8.7 m/s 0.0 mm 17.5° 1012.5 hPa 8.3 m/s 15.3 mm 16.4° 1013.5 hPa 8.7 m/s 0.0 mm 16.6° 1013.4 hPa 6.5 m/s
19:00 16.0° 1013.3 hPa 7.7 m/s 0.0 mm 16.1° 1012.5 hPa 7.4 m/s 15.3 mm 15.4° 1013.5 hPa 7.8 m/s 0.0 mm 14.4° 1013.5 hPa 5.2 m/s
22:00 12.8° 1013.7 hPa 6.0 m/s 0.0 mm 12.8° 1013.0 hPa 5.9 m/s 15.3 mm 12.2° 1013.7 hPa 5.5 m/s 0.0 mm 11.5° 1013.8 hPa 4.3 m/s
 05:31     21:35    Daglengte: 16:04 Vrijdag 20 Mei
01:00 10.9° 1013.0 hPa 5.4 m/s 0.0 mm 10.7° 1012.2 hPa 5.1 m/s 15.3 mm 10.7° 1012.9 hPa 5.2 m/s 0.0 mm 11.0° 1012.7 hPa 4.8 m/s
04:00 11.4° 1011.2 hPa 6.2 m/s 0.0 mm 11.5° 1010.3 hPa 6.0 m/s 15.3 mm 10.8° 1011.1 hPa 6.0 m/s 0.0 mm 11.0° 1011.3 hPa 5.0 m/s
07:00 11.6° 1010.2 hPa 6.3 m/s 5.3 mm 11.7° 1008.9 hPa 6.7 m/s 16.0 mm 11.6° 1010.5 hPa 6.2 m/s 2.5 mm 10.8° 1009.9 hPa 6.3 m/s
10:00 13.7° 1010.8 hPa 6.7 m/s 4.7 mm 14.0° 1009.0 hPa 6.5 m/s 19.3 mm 13.6° 1011.3 hPa 6.7 m/s 0.8 mm 11.7° 1010.9 hPa 4.6 m/s
13:00 15.1° 1011.4 hPa 8.4 m/s 0.0 mm 15.4° 1009.8 hPa 8.5 m/s 23.8 mm 15.0° 1011.8 hPa 8.3 m/s 0.1 mm 15.2° 1011.6 hPa 7.4 m/s
16:00 15.1° 1013.2 hPa 8.1 m/s 16.7 mm 15.1° 1013.2 hPa 8.1 m/s 16.7 mm
19:00 13.3° 1015.0 hPa 6.7 m/s 16.8 mm 13.3° 1015.0 hPa 6.7 m/s 16.8 mm
22:00 9.9° 1017.5 hPa 3.4 m/s 16.9 mm 9.9° 1017.5 hPa 3.4 m/s 16.9 mm
 05:30     21:36    Daglengte: 16:06 Zaterdag 21 Mei
01:00 8.3° 1018.5 hPa 2.8 m/s 16.9 mm 8.3° 1018.5 hPa 2.8 m/s 16.9 mm
04:00 7.9° 1018.8 hPa 2.3 m/s 17.0 mm 7.9° 1018.8 hPa 2.3 m/s 17.0 mm
07:00 9.5° 1018.7 hPa 2.0 m/s 17.0 mm 9.5° 1018.7 hPa 2.0 m/s 17.0 mm
10:00 13.2° 1018.4 hPa 3.5 m/s 17.0 mm 13.2° 1018.4 hPa 3.5 m/s 17.0 mm
13:00 17.0° 1017.2 hPa 3.5 m/s 17.0 mm 17.0° 1017.2 hPa 3.5 m/s 17.0 mm
16:00 15.2° 1016.5 hPa 4.0 m/s 17.0 mm 15.2° 1016.5 hPa 4.0 m/s 17.0 mm
19:00 12.7° 1015.6 hPa 4.7 m/s 17.1 mm 12.7° 1015.6 hPa 4.7 m/s 17.0 mm
22:00 11.9° 1014.6 hPa 4.3 m/s 18.3 mm 11.9° 1014.6 hPa 4.3 m/s 18.3 mm
 05:29     21:38    Daglengte: 16:09 Zondag 22 Mei
01:00 12.9° 1012.7 hPa 5.4 m/s 18.5 mm 12.9° 1012.7 hPa 5.4 m/s 18.5 mm
04:00 13.2° 1011.4 hPa 4.0 m/s 18.7 mm 13.2° 1011.4 hPa 4.0 m/s 18.7 mm
07:00 13.0° 1010.5 hPa 2.6 m/s 19.1 mm 13.0° 1010.5 hPa 2.6 m/s 19.1 mm
10:00 15.0° 1009.9 hPa 4.2 m/s 20.3 mm 15.0° 1009.9 hPa 4.2 m/s 20.3 mm
13:00 15.8° 1009.6 hPa 5.3 m/s 21.0 mm 15.8° 1009.6 hPa 5.3 m/s 21.0 mm
16:00 17.2° 1008.4 hPa 6.6 m/s 21.0 mm 17.2° 1008.4 hPa 6.6 m/s 21.0 mm
19:00 13.7° 1008.3 hPa 5.8 m/s 21.3 mm 13.7° 1008.3 hPa 5.8 m/s 21.3 mm
22:00 10.9° 1008.9 hPa 4.3 m/s 21.3 mm 10.9° 1008.9 hPa 4.3 m/s 21.3 mm
 05:28     21:39    Daglengte: 16:11 Maandag 23 Mei
01:00 10.0° 1008.1 hPa 2.3 m/s 21.4 mm 10.0° 1008.1 hPa 2.3 m/s 21.4 mm
04:00 10.1° 1006.6 hPa 2.5 m/s 23.9 mm 10.1° 1006.6 hPa 2.5 m/s 23.9 mm
07:00 10.2° 1006.4 hPa 3.8 m/s 24.4 mm 10.2° 1006.4 hPa 3.8 m/s 24.4 mm
10:00 12.8° 1006.7 hPa 6.8 m/s 24.9 mm 12.8° 1006.7 hPa 6.8 m/s 24.9 mm
13:00 15.0° 1007.4 hPa 7.7 m/s 25.3 mm 15.0° 1007.4 hPa 7.7 m/s 25.3 mm
16:00 15.2° 1007.7 hPa 7.2 m/s 25.4 mm 15.2° 1007.7 hPa 7.2 m/s 25.4 mm
19:00 13.4° 1008.6 hPa 5.9 m/s 25.4 mm 13.4° 1008.6 hPa 5.9 m/s 25.4 mm
22:00 9.3° 1009.6 hPa 2.7 m/s 25.4 mm 9.3° 1009.6 hPa 2.7 m/s 25.4 mm
 05:26     21:40    Daglengte: 16:14 Dinsdag 24 Mei
01:00 7.1° 1010.0 hPa 2.4 m/s 25.4 mm 7.1° 1010.0 hPa 2.4 m/s 25.4 mm
04:00 6.4° 1009.7 hPa 2.2 m/s 25.4 mm 6.4° 1009.7 hPa 2.2 m/s 25.4 mm
07:00 7.8° 1009.6 hPa 1.9 m/s 25.4 mm 7.8° 1009.6 hPa 1.9 m/s 25.4 mm
10:00 12.8° 1009.5 hPa 3.8 m/s 25.4 mm 12.8° 1009.5 hPa 3.8 m/s 25.4 mm
13:00 15.1° 1008.7 hPa 4.0 m/s 25.5 mm 15.1° 1008.7 hPa 4.0 m/s 25.5 mm
19:00 13.5° 1007.3 hPa 5.0 m/s 26.8 mm 13.5° 1007.3 hPa 5.0 m/s 26.8 mm
 05:25     21:42    Daglengte: 16:17 Woensdag 25 Mei
01:00 11.7° 1003.7 hPa 5.9 m/s 28.6 mm 11.7° 1003.7 hPa 5.9 m/s 28.6 mm
07:00 12.1° 1000.5 hPa 4.9 m/s 29.2 mm 12.1° 1000.5 hPa 4.9 m/s 29.2 mm
13:00 17.6° 1000.4 hPa 7.2 m/s 29.4 mm 17.6° 1000.4 hPa 7.2 m/s 29.4 mm
19:00 14.8° 1001.7 hPa 5.0 m/s 30.1 mm 14.8° 1001.7 hPa 5.0 m/s 30.1 mm
 05:24     21:43    Daglengte: 16:19 Donderdag 26 Mei
01:00 8.2° 1004.8 hPa 2.7 m/s 30.1 mm 8.2° 1004.8 hPa 2.7 m/s 30.1 mm
07:00 10.9° 1007.3 hPa 2.9 m/s 30.4 mm 10.9° 1007.3 hPa 2.9 m/s 30.4 mm
13:00 17.0° 1008.5 hPa 5.4 m/s 30.6 mm 17.0° 1008.5 hPa 5.4 m/s 30.6 mm
19:00 12.7° 1008.7 hPa 6.7 m/s 31.5 mm 12.7° 1008.7 hPa 6.7 m/s 31.5 mm
 05:23     21:44    Daglengte: 16:21 Vrijdag 27 Mei
01:00 8.3° 1013.4 hPa 4.5 m/s 31.5 mm 8.3° 1013.4 hPa 4.5 m/s 31.5 mm
07:00 7.8° 1015.7 hPa 2.8 m/s 31.5 mm 7.8° 1015.7 hPa 2.8 m/s 31.5 mm
13:00 16.7° 1015.2 hPa 2.3 m/s 1.2 mm
19:00 15.4° 1015.1 hPa 1.7 m/s 0.9 mm
 05:22     21:46    Daglengte: 16:24 Zaterdag 28 Mei
01:00 10.5° 1015.8 hPa 1.1 m/s 0.5 mm
07:00 10.6° 1015.5 hPa 0.7 m/s 0.8 mm
13:00 16.6° 1016.0 hPa 1.3 m/s 0.0 mm
19:00 15.1° 1016.8 hPa 2.0 m/s 1.4 mm
 05:21     21:47    Daglengte: 16:26 Zondag 29 Mei
01:00 9.8° 1018.3 hPa 0.8 m/s 0.3 mm
07:00 10.1° 1018.5 hPa 1.0 m/s 0.1 mm
13:00 16.8° 1018.9 hPa 2.6 m/s 0.4 mm
19:00 15.4° 1018.2 hPa 2.5 m/s 0.7 mm
 05:20     21:48    Daglengte: 16:28 Maandag 30 Mei
01:00 10.4° 1018.4 hPa 1.8 m/s 0.4 mm
07:00 11.0° 1017.5 hPa 1.6 m/s 0.8 mm
13:00 16.2° 1018.0 hPa 2.1 m/s 0.6 mm
19:00 15.4° 1017.7 hPa 1.9 m/s 0.5 mm
 05:19     21:49    Daglengte: 16:30 Dinsdag 31 Mei
01:00 10.6° 1018.5 hPa 1.2 m/s 0.7 mm
07:00 10.8° 1018.0 hPa 1.2 m/s 1.0 mm
13:00 16.6° 1018.4 hPa 1.8 m/s 0.8 mm
19:00 15.7° 1017.6 hPa 2.1 m/s 0.8 mm
 05:18     21:51    Daglengte: 16:33 Woensdag 01 Jun
01:00 11.3° 1018.3 hPa 1.5 m/s 0.6 mm
07:00 11.5° 1017.5 hPa 1.3 m/s 0.4 mm
13:00 16.4° 1017.6 hPa 2.4 m/s 0.4 mm
FMI Hirlam - 7.5 km EWN WRFDA - 12 km DWD ICON - 7 km GFS - 25 km Basiskaart






























































Updatetijd (Europe/Brussels) Resolutie Lengte Stap
FMI Hirlam 14:00, 20:00, 02:00, 08:00 7.5 km 49h 1h
EWN WRFDA 10:15, 16:15, 22:15, 04:15 12 km 73h 1h
DWD ICON 11:45, 17:45, 23:45, 05:45 7 km 75h 1h
GFS 14:15, 20:15, 02:15, 08:15 25 km 237h 3h
30+ mm
25-30 mm
20-25 mm
15-20 mm
10-15 mm
6-10 mm
4-6 mm
2-4 mm
1-2 mm
0.5-1 mm
0.2-0.5 mm
0.1-0.2 mm
30+ mm
25-30 mm
20-25 mm
15-20 mm
10-15 mm
6-10 mm
4-6 mm
2-4 mm
1-2 mm
0.5-1 mm
0.2-0.5 mm
0.1-0.2 mm
Sneeuwval
Natte sneeuw
Hagel
Vorst
30+ mm
25-30 mm
20-25 mm
15-20 mm
10-15 mm
6-10 mm
4-6 mm
2-4 mm
1-2 mm
0.5-1 mm
0.2-0.5 mm
0.1-0.2 mm
Sneeuwval
Natte sneeuw
Hagel
Vorst
Onweer
50 mm
40 mm
30 mm
26 mm
22 mm
18 mm
14 mm
10 mm
9 mm
8 mm
7 mm
6 mm
5 mm
4.5 mm
4 mm
3.5 mm
3 mm
2.5 mm
2 mm
1.5 mm
1 mm
0.8 mm
0.6 mm
0.4 mm
0.2 mm
0.05 mm
35°
30°
25°
20°
15°
10°
-5°
-10°
-15°
-20°
-25°
-30°
-35°
33> m/s
29 m/s
25 m/s
21 m/s
17 m/s
14 m/s
11 m/s
8 m/s
5 m/s
3 m/s
0 m/s
2600 J/kg
2400 J/kg
2200 J/kg
2000 J/kg
1800 J/kg
1600 J/kg
1400 J/kg
1200 J/kg
1000 J/kg
800 J/kg
600 J/kg
400 J/kg
200 J/kg
70 dBZ
65 dBZ
60 dBZ
55 dBZ
50 dBZ
45 dBZ
40 dBZ
35 dBZ
30 dBZ
25 dBZ
20 dBZ
15 dBZ
10 dBZ
5 dBZ
-1 K
-2 K
-3 K
-4 K
-5 K
-6 K
-7 K
-8 K
-9 K
950 m²/s²
900 m²/s²
850 m²/s²
800 m²/s²
750 m²/s²
700 m²/s²
650 m²/s²
600 m²/s²
550 m²/s²
500 m²/s²
450 m²/s²
400 m²/s²
350 m²/s²
300 m²/s²
250 m²/s²
200 m²/s²
150 m²/s²
100 m²/s²
46 m/s
44 m/s
42 m/s
40 m/s
38 m/s
36 m/s
34 m/s
32 m/s
30 m/s
28 m/s
26 m/s
24 m/s
22 m/s
20 m/s
16 m/s
12 m/s
8 m/s
4 m/s
30 m/s
28 m/s
26 m/s
24 m/s
22 m/s
20 m/s
18 m/s
16 m/s
14 m/s
12 m/s
10 m/s
8 m/s
6 m/s
4 m/s
2 m/s
3.0
2.8
2.6
2.4
2.2
2.0
1.8
1.6
1.4
1.2
1.0
0.8
0.6
0.4
0.2
15
14
13
12
11
10
9
8
7
6
5
4
3
2
1
90%
80%
70%
60%
50%
40%
30%
20%
10%
42
40
38
36
34
32
30
28
26
24
22
20
18
16
14
12
90+ cm
80-90 cm
70-80 cm
60-70 cm
50-60 cm
40-50 cm
30-40 cm
20-30 cm
10-20 cm
1-10 cm
Sneeuwval
Natte sneeuw
Regen
>120 mm
115 mm
110 mm
105 mm
100 mm
95 mm
90 mm
85 mm
80 mm
75 mm
70 mm
65 mm
60 mm
55 mm
50 mm
45 mm
45 mm
40 mm
35 mm
30 mm
25 mm
20 mm
15 mm
10 mm
5 mm
0.1 mm
960 hPa
880 hPa
800 hPa
720 hPa
640 hPa
560 hPa
584 gpdm
568 gpdm
552 gpdm
536 gpdm
520 gpdm
504 gpdm
488 gpdm
Extreem zwaar Noodweer Kans op onweer
15% 15% 5% 50% 15%

Dag




Kaart